Date,TemperatureHighF,TemperatureAvgF,TemperatureLowF,DewpointHighF,DewpointAvgF,DewpointLowF,HumidityHigh,HumidityAvg,HumidityLow,PressureMaxIn,PressureMinIn,WindSpeedMaxMPH,WindSpeedAvgMPH,GustSpeedMaxMPH,PrecipitationSumIn
2013-1-1,28.0,12.6,-5.0,25.0,7.7,-11.0,89,81,73,30.06,29.96,14,4,23,0.00
2013-1-2,25.0,19.7,6.0,18.0,13.1,0.0,79,75,72,30.26,30.04,18,8,25,0.00
2013-1-3,16.0,5.4,-1.0,6.0,-0.5,-7.0,81,76,65,30.22,30.00,6,2,9,0.00
2013-1-4,27.0,9.6,-4.0,21.0,3.2,-10.0,82,75,64,30.03,29.88,14,2,21,0.00
2013-1-5,24.0,13.9,6.0,15.0,7.6,1.0,84,76,65,30.13,29.99,20,4,26,0.00
2013-1-6,32.0,19.0,9.0,22.0,12.8,5.0,84,76,65,30.04,29.70,13,5,20,0.01
2013-1-7,34.0,22.9,15.0,30.0,15.9,9.0,85,74,66,29.82,29.48,14,6,22,0.01
2013-1-8,36.0,30.4,12.0,31.0,23.4,4.0,87,75,58,29.93,29.46,18,8,29,0.00
2013-1-9,45.0,30.1,9.0,30.0,21.9,3.0,82,72,53,29.93,29.58,14,8,24,0.01
2013-1-10,34.0,25.4,13.0,29.0,20.0,8.0,84,79,73,29.72,29.51,20,9,25,0.01
2013-1-11,14.0,7.4,1.0,10.0,2.2,-6.0,83,79,72,30.10,29.69,33,20,40,0.22
2013-1-12,3.0,-2.6,-11.0,-5.0,-10.0,-18.0,73,70,63,30.14,30.09,13,3,20,0.22
2013-1-13,6.0,-0.3,-12.0,-1.0,-6.8,-19.0,78,74,69,30.15,30.10,10,3,14,0.00
2013-1-14,12.0,3.7,-5.0,8.0,-1.6,-11.0,82,78,75,30.12,29.85,8,3,12,0.00
2013-1-15,38.0,30.4,12.0,32.0,24.5,8.0,91,79,68,29.85,29.75,24,10,33,0.01
2013-1-16,40.0,36.9,33.0,32.0,28.9,27.0,83,73,65,30.19,29.78,17,8,28,0.01
2013-1-17,39.0,33.4,27.0,29.0,27.0,24.0,88,78,61,30.24,29.80,9,3,14,0.00
2013-1-18,40.0,34.7,30.0,29.0,25.5,22.0,77,69,58,29.83,29.72,11,4,17,0.00
2013-1-19,32.0,21.0,14.0,26.0,13.9,9.0,81,74,67,30.29,29.83,21,8,25,0.00
2013-1-20,16.0,2.0,-7.0,12.0,-6.7,-16.0,84,67,51,30.57,30.19,25,10,31,0.04
2013-1-21,6.0,2.1,-4.0,0.0,-7.0,-15.0,76,65,54,30.41,30.07,16,6,18,0.04
2013-1-22,17.0,10.8,6.0,9.0,4.5,0.0,79,75,69,30.18,30.03,13,5,17,0.04
2013-1-23,11.0,7.3,3.0,5.0,0.1,-4.0,75,72,68,30.33,29.99,26,12,33,0.00
2013-1-24,30.0,18.9,7.0,21.0,12.1,0.0,80,75,67,30.01,29.77,26,10,32,0.00
2013-1-25,22.0,16.8,12.0,16.0,12.0,8.0,84,81,76,30.01,29.84,16,6,20,0.00
2013-1-26,35.0,24.6,15.0,28.0,19.3,11.0,87,81,69,29.84,29.67,20,5,24,0.00
2013-1-27,36.0,30.6,26.0,30.0,26.3,21.0,92,84,72,29.83,29.65,10,4,18,0.06
2013-1-28,32.0,23.8,17.0,22.0,17.8,12.0,86,78,62,29.74,29.62,5,2,9,0.03
2013-1-29,17.0,5.3,-8.0,13.0,-0.6,-16.0,84,76,65,30.19,29.61,25,10,35,0.01
2013-1-30,4.0,-2.2,-11.0,-4.0,-10.8,-21.0,73,66,59,30.12,29.86,22,6,32,0.01
2013-1-31,5.0,-5.2,-18.0,-1.0,-13.9,-27.0,76,65,53,30.28,29.92,10,5,13,0.00